Regional Weather Roundup
Issued by NWS

Home | Current Version | Previous Version | Graphics & Text | Print | Product List | Glossary On
Versions: 1 2 3 4 5 6 7 8 9 10 11 12 13 14 15 16 17 18 19 20 21 22 23 24 25 26 27 28 29 30 31 32 33 34 35 36 37 38 39 40 41 42 43 44 45 46 47 48 49 50
000
ASUS45 KCYS 191310
RWRWY

WYOMING REGIONAL WEATHER ROUNDUP
NATIONAL WEATHER SERVICE CHEYENNE WY
700 AM MDT FRI SEP 19 2014

NOTE:  "FAIR" INDICATES FEW OR NO CLOUDS BELOW 12,000 FEET
WITH NO SIGNIFICANT WEATHER AND/OR OBSTRUCTIONS TO VISIBILITY.

WYZ001-191400-
YELLOWSTONE NATIONAL PARK

CITY           SKY/WX    TMP DP  RH WIND       PRES   REMARKS
LK YELLOWSTONE   N/A     36  36 100 CALM      30.18R
W YELLOWSTONE  NOT AVBL

$$
WYZ002>013-054>058-071-098>099-191400-
NORTHERN WYOMING

CITY           SKY/WX    TMP DP  RH WIND       PRES   REMARKS
JACKSON        MOCLDY    43  41  93 CALM      30.13S
CODY             N/A    N/A N/A N/A MISG        N/A
GREYBULL       MOCLDY    55  53  93 SW3       29.92R
WORLAND        CLOUDY    56  53  90 S7        29.92S
SHERIDAN       MOCLDY    56  50  80 W7        29.88R
BUFFALO        CLOUDY    57  48  72 SW3       29.92S
GILLETTE       CLOUDY    59  52  77 SW15      29.89R
HULETT         FAIR      59  52  77 MISG      29.88
NEWCASTLE      FAIR      55  48  76 W3        29.91

$$
WYZ014>020-022>026-101>103-191400-
CENTRAL WYOMING

CITY           SKY/WX    TMP DP  RH WIND       PRES   REMARKS
BIG PINEY      PTCLDY    47  44  90 NE6       30.15R
PINEDALE       MOSUNNY   43  43 100 NW3       30.17R
DUBOIS         FAIR      48  41  76 NW9       30.10R
LANDER         CLOUDY    62  42  47 SW3       29.99R
RIVERTON       CLOUDY    55  49  80 NW8       29.99R
CASPER         CLOUDY    58  49  72 SW15      29.96S
DOUGLAS        LGT RAIN  57  47  69 E5        29.94F

$$
WYZ021-027>030-104>119-191400-
SOUTHERN WYOMING

CITY           SKY/WX    TMP DP  RH WIND       PRES   REMARKS
EVANSTON       CLOUDY    51  48  89 S7        30.16F
KEMMERER       PTSUNNY   48  46  93 NW5       30.18S
FORT BRIDGER   PTSUNNY   54  52  93 S14       30.17F
ROCK SPRINGS   CLOUDY    53  49  86 S9        30.13S
DIXON          FAIR      46  39  76 E8        30.18S
RAWLINS        PTCLDY    52  40  63 SW3       30.13F
SARATOGA       FAIR      43  37  81 S6        30.18S
LARAMIE        CLEAR     51  35  54 N8        30.16R
CHEYENNE       PTCLDY    56  45  66 NE10      30.05R
TORRINGTON     PTCLDY    55  50  83 W6        29.92R
PINE BLUFFS    FAIR      50  41  71 CALM      30.01R

$$



USA.gov is the U.S. government's official web portal to all federal, state and local government web resources and services.